Location: Waco, TX
(31.5481°N, 97.1672°W)
Time: 23:28:50
(UTC-05:00)

ISS - Visible Passes

Search period start: 22 October 2017 00:00
Search period end: 01 November 2017 00:00
Orbit: 401 x 408 km, 51.6° (Epoch: 23 October)

Date Brightness Start Highest point End Pass type
(mag) Time Alt. Az. Time Alt. Az. Time Alt. Az.
25 Oct -0.4 07:10:57 10° SSE 07:12:16 12° SE 07:13:35 10° ESE visible
27 Oct -2.0 07:00:47 10° SSW 07:03:46 34° SE 07:06:45 10° ENE visible
28 Oct -0.8 06:09:30 10° SSE 06:11:32 16° SE 06:13:34 10° E visible
29 Oct -3.9 06:52:06 10° SW 06:55:20 71° NW 06:58:34 10° NE visible
30 Oct -3.0 06:02:49 46° SE 06:02:59 46° SE 06:06:07 10° ENE visible
31 Oct -2.6 06:46:13 22° WNW 06:47:01 25° NW 06:49:47 10° NNE visible
